Wind_Speed
9 9 9 8 9 9 9 9 10 11 10 9 9 10 9 9 8 8 8 8 8 9 10 10 11 12 13 13 14 14 14 14 15 15 16 16 16 16 16 16 15 15 15 15
10 10 10 10 10 11 11 11 11 11 11 9 11 11 10 10 10 10 10 10 11 11 12 12 13 14 14 15 15 15 15 15 16 16 16 17 17 17 17 16 16 15 15 15
11 10 11 11 11 12 12 12 13 13 12 12 13 13 12 12 12 12 12 12 13 14 14 14 15 15 16 16 16 16 17 17 17 17 17 18 18 18 18 18 17 16 16 16
12 12 13 11 12 13 13 14 14 14 14 14 14 14 14 13 13 14 14 15 15 16 16 17 17 18 18 18 18 18 19 19 19 19 19 19 20 19 19 19 19 18 18 17
14 14 14 14 13 14 15 15 15 15 14 14 15 16 15 14 14 15 16 17 18 18 19 19 19 20 20 20 20 21 21 21 21 21 21 22 22 22 21 21 21 20 19 19
16 16 16 15 14 15 16 16 15 16 16 16 17 17 16 16 17 18 18 19 19 20 21 21 21 22 22 22 22 23 23 23 23 23 24 24 24 24 24 23 23 22 22 22
17 18 19 17 16 17 18 16 16 17 17 18 18 19 19 20 20 21 21 21 22 22 22 23 24 24 24 24 24 25 25 25 26 26 26 26 26 26 26 26 26 25 25 24
20 21 22 19 19 20 19 19 19 19 20 20 20 21 21 21 22 22 23 23 24 24 24 25 25 26 26 26 26 27 28 28 28 28 29 29 29 29 29 29 28 28 26 26
24 24 23 22 22 22 22 22 22 22 22 21 22 22 23 23 23 24 24 24 25 26 27 27 27 28 28 28 29 30 30 30 31 31 31 31 31 31 31 30 30 29 28 28
26 26 25 25 24 25 24 24 24 24 24 24 24 24 25 25 25 26 26 27 27 28 28 29 30 30 30 31 31 32 33 33 33 33 34 34 33 33 33 32 32 31 31 30
29 28 28 27 27 26 26 26 26 26 27 27 27 27 27 28 28 28 29 29 30 30 30 31 32 32 33 34 34 35 35 35 36 36 36 36 35 35 34 33 33 32 32 33
31 30 30 30 30 29 29 29 29 28 29 29 29 29 29 30 31 31 31 32 32 33 33 34 35 35 36 36 36 37 37 37 37 37 37 37 36 35 35 34 34 34 34 34
33 32 32 31 31 31 31 31 31 31 31 32 32 32 32 33 33 34 34 35 35 36 36 37 37 38 38 38 39 39 39 38 38 39 39 38 37 37 36 36 35 36 36 36
34 33 33 33 32 33 33 33 34 34 34 34 34 34 35 35 36 37 37 37 37 38 38 39 39 39 40 40 41 41 41 40 40 40 40 39 39 38 38 37 37 37 37 37
35 35 35 35 35 35 35 35 36 36 36 37 37 37 37 38 38 39 39 40 39 40 40 40 41 41 42 42 42 42 42 42 42 42 41 41 40 40 39 39 38 38 38 37
36 37 37 37 37 37 37 37 37 37 38 38 38 39 39 40 41 41 41 41 41 41 42 42 43 43 44 44 44 44 44 44 44 43 43 42 42 41 40 40 39 38 38 38
37 38 38 38 38 38 38 39 39 39 40 41 41 42 42 43 43 43 43 44 44 44 45 45 45 46 46 46 46 46 46 46 46 45 44 43 42 41 41 40 40 40 39 39
39 39 39 39 40 40 40 41 41 41 42 42 43 44 44 44 45 45 45 46 46 46 47 47 48 48 48 48 48 48 48 47 46 45 45 44 43 42 42 42 41 41 40 40
40 41 41 41 41 42 42 42 43 43 43 44 45 45 46 46 46 46 47 47 48 48 48 48 49 49 49 49 49 49 48 47 46 45 45 45 44 43 43 43 42 41 40 40
42 43 43 43 43 44 44 45 45 45 45 46 46 47 47 47 47 48 48 47 48 48 48 48 49 49 49 49 49 49 48 48 47 46 45 45 45 44 43 43 42 41 41 40
43 44 44 45 45 45 46 46 46 46 46 46 47 47 47 48 48 48 48 48 48 48 49 49 49 49 49 49 49 49 48 48 47 47 46 45 45 44 44 43 42 41 41 40
44 44 45 45 46 46 46 47 47 47 47 48 48 48 48 48 48 48 48 48 48 49 49 49 49 50 50 50 49 49 48 48 47 47 46 46 46 44 43 42 42 41 41 40
44 44 45 45 46 47 47 47 47 47 47 48 48 48 48 48 48 48 48 48 49 49 50 50 50 50 50 50 49 48 47 47 47 46 46 45 45 43 42 42 41 40 41 40
44 44 45 45 46 47 47 47 47 47 47 48 48 48 48 49 49 49 49 49 49 49 50 50 50 50 50 49 48 48 47 47 46 45 44 44 43 43 42 40 40 39 40 40
44 45 46 46 46 46 46 47 48 48 48 48 48 48 48 48 49 48 48 48 48 49 49 50 50 49 49 49 48 48 47 46 45 44 43 43 42 42 41 39 38 38 39 39
46 46 46 46 46 46 46 47 48 48 48 48 48 48 48 48 48 48 47 47 47 48 48 48 48 48 48 48 47 47 46 45 44 43 43 42 41 41 40 40 39 38 37 37
46 46 46 46 45 45 46 46 47 47 47 48 48 48 48 47 47 47 47 47 46 46 46 46 46 46 45 45 45 45 44 43 43 42 42 41 40 40 40 40 39 37 37 37
Wind_Direction
236 238 236 229 221 217 214 219 236 244 249 256 262 265 268 272 271 274 279 283 286 288 290 293 295 299 302 304 306 307 308 311 312 313 314 315 316 316 316 316 317 319 321 323
240 242 244 242 234 229 227 228 239 249 254 262 267 268 267 272 276 278 281 285 287 287 288 292 296 298 300 301 302 303 305 308 309 310 312 314 315 314 315 315 315 315 318 318
242 247 251 249 244 241 239 241 245 254 260 259 264 267 269 273 276 277 279 282 285 289 290 291 293 296 298 299 299 300 302 304 306 307 309 310 312 311 311 311 310 310 313 314
245 248 253 255 251 250 250 249 252 256 260 263 267 269 270 272 275 277 279 281 284 288 290 290 292 294 295 296 297 297 298 300 302 303 304 304 306 306 305 306 305 304 307 307
248 252 258 254 254 253 253 254 256 259 263 265 266 267 270 274 276 279 281 282 284 286 289 290 292 292 292 293 295 296 296 297 298 299 300 300 301 301 301 301 300 299 300 302
249 252 261 263 260 257 256 258 258 260 263 265 268 270 275 277 279 282 283 284 285 287 288 289 290 291 291 291 292 293 295 295 295 296 296 297 297 297 297 298 297 295 295 297
252 253 259 264 263 259 258 262 263 264 267 269 272 276 278 278 280 282 283 284 286 287 288 289 289 288 288 289 290 292 293 293 293 293 294 294 295 295 295 295 294 293 292 293
251 252 258 263 262 260 263 265 267 268 270 272 274 276 278 281 284 285 285 284 285 286 287 288 288 288 287 288 289 290 291 291 291 292 292 293 293 293 293 292 291 291 290 290
253 255 259 260 261 263 265 266 268 270 271 273 275 276 279 281 283 285 286 286 286 286 286 287 288 287 287 288 289 290 291 291 291 291 291 291 291 291 291 290 289 288 286 286
255 258 259 261 262 263 264 267 269 270 272 274 275 277 278 280 282 284 285 287 287 288 288 288 288 288 288 288 289 290 290 290 290 290 291 291 290 290 289 288 287 286 284 284
256 258 259 261 262 263 265 267 269 270 271 272 274 276 278 280 282 283 284 285 286 288 289 289 289 288 288 288 289 290 290 290 290 290 290 290 290 289 287 287 286 286 284 283
257 258 259 260 261 263 265 266 268 269 271 272 274 276 278 280 281 282 283 285 286 287 289 290 290 289 288 288 289 290 290 290 289 289 290 290 289 288 287 286 286 284 283 283
258 259 261 262 264 265 266 267 268 270 272 274 275 277 278 280 281 282 283 284 286 287 288 289 290 290 289 289 290 290 290 290 289 290 290 289 288 287 286 284 284 283 282 282
258 260 262 264 266 267 268 269 270 271 272 273 275 277 278 280 282 283 283 284 285 286 287 288 289 289 289 289 290 290 289 289 289 289 289 288 287 287 286 284 283 282 281 280
259 261 262 264 265 267 268 269 270 271 272 274 276 277 279 280 282 282 283 284 285 286 287 288 289 289 288 289 289 289 288 288 288 289 288 287 287 286 285 284 283 282 280 279
260 262 263 265 266 267 268 270 272 273 274 275 277 278 279 280 281 282 283 284 285 285 286 287 288 288 289 289 289 289 288 287 288 288 287 286 285 285 284 283 282 282 280 279
261 263 265 266 267 268 270 271 273 274 275 276 278 279 280 280 281 282 283 284 284 285 286 287 288 289 289 289 289 289 288 287 287 286 285 284 284 283 282 282 281 281 280 278
263 264 265 267 268 269 271 272 274 275 276 277 278 279 281 281 281 282 283 283 284 285 286 287 288 288 289 289 289 289 288 288 287 286 284 284 282 282 281 281 280 280 280 278
264 265 266 268 269 270 271 273 275 276 277 278 279 280 281 282 282 283 283 284 285 286 287 287 288 288 289 289 289 289 289 288 286 285 284 283 281 280 280 280 279 279 278 278
265 267 268 268 269 271 272 274 275 276 277 279 280 281 282 282 283 284 284 285 286 287 288 289 289 289 289 289 289 289 289 288 286 285 283 282 281 280 279 278 277 276 276 277
267 268 269 269 270 271 272 273 275 276 278 279 280 281 281 282 283 284 285 285 287 288 289 289 290 290 290 290 290 289 289 288 286 285 283 282 281 280 279 278 276 275 275 275
269 270 270 270 271 272 273 274 275 276 278 279 280 280 281 282 283 284 285 286 287 288 289 289 290 290 290 290 290 290 289 288 287 285 284 282 281 280 279 277 275 274 273 272
270 270 270 271 271 272 273 274 276 277 279 280 280 281 282 283 284 285 285 286 287 288 289 289 290 290 290 289 289 289 288 288 287 286 284 282 280 279 278 276 274 272 271 271
270 270 271 272 273 274 275 276 277 278 279 280 280 281 282 283 284 285 286 287 288 288 289 289 289 289 289 289 289 288 288 288 287 286 284 281 280 278 277 276 274 271 271 271
270 272 273 274 275 275 276 276 277 278 279 280 281 282 283 284 285 285 286 287 287 288 288 288 288 288 288 288 288 287 287 286 285 284 282 281 280 278 277 275 273 271 270 270
272 273 274 275 276 276 276 277 278 278 278 279 280 282 283 284 285 285 285 287 287 288 288 288 288 288 288 288 287 286 285 284 283 282 281 280 279 277 275 274 273 270 269 269
272 273 274 275 276 277 278 278 279 279 279 279 280 281 282 283 284 284 285 286 287 288 288 288 288 288 288 288 287 286 284 283 283 282 281 279 277 276 274 272 271 269 268 268
Height
5820 5820 5821 5822 5823 5824 5825 5825 5826 5826 5826 5827 5828 5828 5827 5827 5827 5827 5828 5828 5828 5828 5827 5827 5826 5825 5825 5824 5823 5821 5820 5819 5817 5816 5814 5813 5811 5809 5808 5807 5806 5805 5803 5802
5818 5819 5819 5820 5821 5822 5823 5823 5824 5824 5824 5825 5825 5825 5825 5825 5825 5825 5825 5825 5825 5825 5824 5824 5823 5822 5821 5820 5819 5818 5817 5816 5814 5813 5811 5810 5808 5806 5805 5803 5802 5801 5800 5799
5815 5816 5817 5818 5819 5820 5821 5821 5821 5821 5823 5822 5823 5822 5822 5823 5823 5822 5822 5822 5822 5821 5821 5820 5819 5818 5817 5816 5815 5814 5813 5812 5811 5809 5808 5806 5805 5803 5801 5800 5799 5798 5796 5795
5812 5814 5814 5818 5816 5817 5817 5818 5818 5818 5819 5819 5819 5819 5819 5819 5819 5819 5819 5818 5818 5817 5817 5816 5815 5814 5813 5812 5811 5810 5809 5808 5806 5805 5803 5802 5800 5799 5797 5796 5795 5794 5793 5792
5809 5809 5810 5812 5812 5813 5813 5814 5815 5815 5815 5815 5815 5815 5815 5815 5815 5815 5814 5814 5813 5813 5812 5811 5810 5809 5808 5807 5806 5805 5804 5802 5801 5799 5798 5797 5795 5794 5792 5791 5790 5789 5788 5787
5805 5806 5806 5808 5809 5808 5810 5810 5811 5811 5811 5811 5811 5811 5811 5811 5810 5810 5809 5809 5808 5808 5807 5806 5804 5803 5802 5801 5800 5799 5798 5796 5795 5794 5792 5791 5789 5788 5786 5785 5784 5783 5783 5782
5801 5801 5801 5803 5803 5804 5806 5807 5806 5806 5806 5806 5806 5807 5806 5805 5805 5805 5804 5803 5802 5802 5801 5799 5798 5797 5796 5795 5794 5792 5791 5790 5788 5787 5785 5784 5782 5781 5779 5778 5777 5776 5776 5775
5795 5796 5798 5798 5798 5799 5800 5801 5801 5801 5801 5801 5801 5800 5800 5800 5799 5798 5798 5797 5796 5795 5794 5793 5791 5790 5789 5788 5787 5785 5784 5782 5781 5779 5778 5776 5774 5773 5771 5770 5769 5768 5767 5767
5790 5792 5792 5792 5793 5794 5794 5794 5795 5795 5795 5795 5795 5794 5794 5794 5793 5792 5791 5790 5789 5788 5787 5785 5784 5782 5781 5780 5779 5777 5775 5774 5772 5771 5769 5767 5765 5764 5762 5761 5760 5759 5758 5758
5783 5783 5785 5786 5787 5787 5788 5788 5788 5789 5789 5789 5789 5788 5788 5787 5786 5785 5784 5783 5781 5780 5779 5777 5775 5774 5772 5771 5770 5768 5766 5765 5763 5761 5759 5758 5756 5754 5752 5751 5750 5749 5748 5748
5775 5776 5777 5779 5779 5780 5781 5781 5781 5782 5782 5781 5781 5781 5780 5779 5778 5777 5776 5775 5773 5772 5770 5768 5766 5765 5763 5761 5760 5758 5756 5754 5752 5750 5749 5747 5745 5743 5741 5740 5739 5738 5737 5737
5768 5769 5770 5771 5772 5773 5773 5774 5774 5774 5774 5773 5773 5772 5772 5771 5770 5769 5767 5766 5764 5763 5761 5759 5757 5755 5753 5751 5749 5747 5745 5743 5741 5739 5737 5735 5734 5732 5731 5729 5728 5726 5726 5725
5759 5760 5761 5762 5763 5764 5765 5765 5765 5765 5765 5765 5764 5763 5762 5761 5760 5759 5758 5756 5754 5753 5750 5748 5746 5744 5742 5739 5737 5735 5733 5732 5730 5728 5726 5724 5722 5721 5720 5719 5717 5715 5714 5713
5750 5751 5752 5753 5754 5755 5755 5756 5756 5756 5755 5755 5754 5753 5752 5751 5750 5749 5747 5745 5744 5742 5739 5737 5735 5733 5730 5728 5726 5723 5721 5719 5717 5715 5713 5712 5710 5709 5707 5706 5705 5704 5703 5701
5740 5742 5743 5744 5744 5745 5745 5745 5745 5745 5745 5744 5744 5743 5742 5741 5739 5738 5736 5734 5732 5730 5728 5726 5723 5721 5718 5716 5714 5711 5709 5707 5705 5703 5700 5699 5697 5696 5694 5693 5692 5691 5691 5690
5730 5731 5732 5733 5734 5734 5734 5734 5734 5734 5734 5733 5732 5731 5730 5729 5727 5725 5724 5722 5720 5718 5716 5713 5711 5708 5706 5703 5700 5698 5696 5693 5691 5689 5687 5685 5684 5682 5681 5680 5679 5678 5678 5677
5719 5720 5721 5722 5723 5723 5723 5723 5723 5722 5722 5721 5720 5719 5718 5716 5714 5713 5711 5709 5707 5705 5702 5700 5697 5695 5692 5689 5686 5684 5681 5679 5677 5675 5673 5671 5670 5668 5667 5667 5666 5665 5664 5664
5708 5709 5710 5710 5711 5711 5711 5711 5711 5710 5709 5708 5707 5706 5704 5703 5701 5699 5697 5695 5693 5691 5688 5685 5683 5680 5678 5675 5672 5669 5666 5664 5662 5660 5658 5657 5655 5654 5653 5652 5652 5651 5651 5650
5696 5697 5698 5698 5698 5699 5698 5698 5698 5697 5696 5695 5693 5692 5690 5689 5687 5685 5683 5681 5678 5676 5674 5671 5668 5665 5663 5660 5656 5654 5651 5648 5646 5645 5643 5642 5641 5640 5639 5638 5637 5637 5636 5636
5683 5684 5685 5685 5686 5685 5685 5685 5684 5683 5682 5681 5679 5678 5676 5674 5672 5670 5668 5666 5664 5661 5658 5655 5652 5650 5647 5644 5641 5638 5635 5633 5631 5629 5628 5627 5625 5625 5624 5623 5622 5622 5622 5622
5670 5671 5671 5672 5672 5671 5671 5670 5670 5669 5668 5666 5665 5663 5661 5660 5658 5655 5653 5652 5649 5646 5643 5640 5637 5634 5631 5628 5625 5622 5620 5617 5615 5613 5612 5611 5610 5609 5608 5607 5607 5607 5607 5607
5657 5657 5657 5657 5657 5657 5657 5656 5655 5654 5653 5652 5650 5648 5647 5645 5643 5641 5638 5636 5634 5631 5628 5625 5622 5619 5615 5612 5609 5607 5604 5602 5599 5597 5596 5595 5594 5593 5593 5592 5592 5592 5592 5593
5642 5642 5642 5642 5642 5642 5642 5641 5640 5639 5638 5636 5635 5633 5631 5629 5627 5625 5624 5621 5618 5615 5612 5609 5606 5603 5599 5596 5594 5591 5588 5586 5584 5582 5580 5579 5578 5577 5577 5577 5577 5577 5578 5578
5628 5628 5628 5628 5628 5627 5627 5626 5625 5624 5623 5621 5620 5618 5616 5614 5612 5610 5607 5605 5602 5599 5596 5593 5590 5586 5583 5580 5578 5575 5573 5571 5568 5566 5565 5564 5563 5562 5562 5562 5562 5562 5563 5564
5614 5614 5614 5614 5613 5613 5612 5611 5610 5609 5607 5606 5604 5603 5600 5598 5597 5595 5592 5590 5587 5584 5581 5577 5574 5571 5567 5565 5562 5560 5557 5555 5553 5551 5550 5549 5548 5548 5547 5547 5547 5548 5549 5549
5600 5599 5599 5599 5598 5598 5597 5596 5595 5593 5592 5591 5589 5588 5586 5583 5581 5579 5577 5574 5571 5568 5565 5562 5558 5555 5552 5550 5547 5544 5542 5540 5538 5537 5536 5535 5534 5533 5533 5533 5534 5534 5535 5536
5585 5585 5585 5584 5584 5583 5582 5581 5580 5578 5577 5575 5574 5572 5571 5568 5566 5564 5562 5559 5556 5553 5550 5547 5543 5540 5537 5534 5531 5529 5527 5525 5524 5522 5521 5520 5520 5520 5520 5520 5520 5521 5522 5523